User: anonymous   Login
Location: Giessen
(50.5800°N, 8.7030°E)
Time: 13:31:22
(UTC+02:00)
Language:

Superbird C - Orbit

View from above orbital plane
View from above orbital plane
View from above satellite
View from above satellite

Ground track
Ground track

The orbit data is extracted from the following two-line orbital elements,

1 24880U 97036A   18203.56185806 -.00000049 +00000-0 +00000-0 0  9994
2 24880 007.3364 051.7271 0004458 286.5584 073.4175 00.99070442036268
Epoch (UTC): 22 July 2018 13:29:04
Eccentricity: 0.0004458
inclination: 7.3364°
perigee height: 36107 km
apogee height: 36145 km
right ascension of ascending node: 51.7271°
argument of perigee: 286.5584°
revolutions per day: 0.99070442
mean anomaly at epoch: 73.4175°
orbit number at epoch: 3626

The dashed part of the orbit path shows where the satellite is in the earth's shadow,  

DLR